DUTHsat (42724 NORAD) Tracking and Keplerian Element Data

This shows tracking and keplerian element data for the satellite.

Feedback or suggestion? Click here.




ElementValue
Catalog42724
NameDUTHsat
Epoch Orbit7149
Epoch Day235.78659133
Epoch Year2018
RAAN346.4345
Inclination51.6183
Eccentricity0.0012332
Argument of Perigee332.8068
Mean Anonmoly27.2311
Mean Motion16.19515804
Decay Rate0.01326505
L11 42724U 98067MD 18235.78659133 .01326505 11850-4 68182-3 0 9999
L22 42724 51.6183 346.4345 0012332 332.8068 27.2311 16.19515804 71492



Live tracking and technical data element details for DUTHsat (NORAD 42724). DUTHsat can be tracked NOW for your location showing map with azimuth and elevation plus other details from your city location.







IsCatalogInMostPopularTable: catalog: 42724, numindb: 585
Update: records affected: 1



GetName: 42724 DUTHsat

Hit Count: updated at: Thu, 23 Jan 2025 18:08:52 GMT